This is the latest recevied weather packets stored in our database for station/object VA3BOO. If no packets are shown the sender has not sent any weather packets the latest 10 day(s).
| Time | Temp. | Humidity | Pressure | Rain* | Wind** | Luminosity | Snow |
|---|---|---|---|---|---|---|---|
| 1777405804 | 15° C | 54% | 1013.8 hPa | 0 mm | - | 56 W/m² | - |
| 1777405504 | 15.56° C | 52% | 1014.2 hPa | 0 mm | - | 106 W/m² | - |
| 1777405204 | 16.11° C | 51% | 1013.9 hPa | 0 mm | - | 76 W/m² | - |
| 1777404904 | 16.11° C | 46% | 1013.9 hPa | 0 mm | - | 87 W/m² | - |
| 1777404604 | 16.11° C | 45% | 1013.9 hPa | 0 mm | - | 102 W/m² | - |
| 1777404304 | 16.11° C | 46% | 1013.8 hPa | 0 mm | - | 84 W/m² | - |
| 1777404004 | 16.11° C | 44% | 1014 hPa | 0 mm | - | 55 W/m² | - |
| 1777403704 | 16.67° C | 44% | 1014 hPa | 0 mm | - | 79 W/m² | - |
| 1777403404 | 16.11° C | 43% | 1014 hPa | 0 mm | - | 140 W/m² | - |
| 1777403104 | 16.11° C | 44% | 1014 hPa | 0 mm | - | 168 W/m² | - |
| 1777402804 | 16.11° C | 43% | 1014 hPa | 0 mm | - | 161 W/m² | - |
| 1777402504 | 16.11° C | 43% | 1014.3 hPa | 0 mm | - | 96 W/m² | - |
| 1777402204 | 16.11° C | 44% | 1014.4 hPa | 0 mm | - | 88 W/m² | - |
| 1777401904 | 16.11° C | 44% | 1014.2 hPa | 0 mm | - | 81 W/m² | - |
| 1777401604 | 16.11° C | 43% | 1014 hPa | 0 mm | - | 86 W/m² | - |
| 1777401304 | 16.11° C | 44% | 1014.4 hPa | 0 mm | - | 97 W/m² | - |
| 1777401004 | 16.11° C | 43% | 1014.3 hPa | 0 mm | - | 73 W/m² | - |
| 1777400704 | 16.11° C | 43% | 1014.2 hPa | 0 mm | - | 89 W/m² | - |
| 1777400404 | 16.11° C | 42% | 1014.1 hPa | 0 mm | - | 89 W/m² | - |
| 1777400104 | 16.67° C | 42% | 1014.2 hPa | 0 mm | - | 94 W/m² | - |
| 1777399804 | 17.22° C | 40% | 1014 hPa | 0 mm | - | 97 W/m² | - |
| 1777399504 | 17.78° C | 38% | 1014.4 hPa | 0 mm | - | 95 W/m² | - |
| 1777399204 | 17.78° C | 40% | 1014.5 hPa | 0 mm | - | 108 W/m² | - |
| 1777398904 | 17.78° C | 39% | 1014.1 hPa | 0 mm | - | 110 W/m² | - |
| 1777398604 | 17.78° C | 39% | 1014.2 hPa | 0 mm | - | 124 W/m² | - |
* Rain latest hour (hover to see other rain measurements)
** Current wind speed in m/s (hover to see current wind gust speed)